Change the Weather History Date:

Sunday, November 13, 2011

  Actual Average Record
Temperature  
Mean Temperature 48 °F 47 °F  
Max Temperature 64 °F 58 °F 77 °F (1955)
Min Temperature 32 °F 37 °F 22 °F (1911)
Degree Days  
Heating Degree Days 17 18  
Month to date heating degree days 215 205  
Since 1 July heating degree days 503 552  
Cooling Degree Days 0 0  
Month to date cooling degree days 0 0  
Year to date cooling degree days 1558 1163  
Moisture  
Dew Point 32 °F    
Average Humidity 61    
Maximum Humidity 96    
Minimum Humidity 25    
Precipitation  
Precipitation 0.00 in 0.10 in 2.74 in (1937)
Month to date precipitation 0.12 1.40  
Year to date precipitation 49.69 36.61  
Snow  
Snow 0.00 in 0.00 in 3.00 in (1904)
Month to date snowfall 0.0 0.1  
Since 1 July snowfall T 0.1  
Snow Depth 0.00 in    
Sea Level Pressure  
Sea Level Pressure 30.05 in    
Wind  
Wind Speed 6 mph (SSW)    
Max Wind Speed 18 mph    
Max Gust Speed 28 mph    
Visibility 10 miles    
Events      
T = Trace of Precipitation, MM = Missing Value Source: NWS Daily Summary

Daily Weather History Graph

Daily Weather History Graph

Search for Another Location

Airport or City:

Trip Planner

Search our weather history database for the weather conditions in past years. The results will help you decide how hot, cold, wet, or windy it might be!

Date:

Astronomy

Nov. 13, 2011 Rise Set
Actual Time 6:47 AM EST 4:54 PM EST
Civil Twilight 6:18 AM EST 5:22 PM EST
Nautical Twilight 5:46 AM EST 5:54 PM EST
Astronomical Twilight 5:15 AM EST 6:26 PM EST
Moon 7:01 PM EST (11/13) 9:17 AM EST (11/13)
Length of Visible Light 11h 03m
Length of Day
10h 06m
Waning Gibbous, 93% of the Moon is Illuminated
Nov 13
Waning Gibbous
Nov 18
Last Quarter
Nov 25
New
Dec 2
First Quarter
Dec 10
Full

Hourly Weather History & Observations

Time (EST) Temp. Dew Point Humidity Pressure Visibility Wind Dir Wind Speed Gust Speed Precip Events Conditions
12:54 AM 43.0 °F 34.0 °F 71% 30.12 in 10.0 mi Calm Calm - N/A   Mostly Cloudy
1:54 AM 42.1 °F 33.1 °F 70% 30.12 in 10.0 mi Calm Calm - N/A   Overcast
2:54 AM 41.0 °F 33.8 °F 76% 30.12 in 10.0 mi Calm Calm - N/A   Mostly Cloudy
3:54 AM 39.0 °F 33.1 °F 79% 30.12 in 10.0 mi Calm Calm - N/A   Mostly Cloudy
4:54 AM 37.9 °F 33.1 °F 83% 30.11 in 10.0 mi Calm Calm - N/A   Mostly Cloudy
5:54 AM 36.0 °F 32.0 °F 86% 30.12 in 10.0 mi Calm Calm - N/A   Scattered Clouds
6:54 AM 34.0 °F 32.0 °F 92% 30.13 in 10.0 mi Calm Calm - N/A   Scattered Clouds
7:54 AM 36.0 °F 33.1 °F 89% 30.14 in 10.0 mi Calm Calm - N/A   Scattered Clouds
8:54 AM 46.9 °F 36.0 °F 66% 30.13 in 10.0 mi SW 3.5 mph - N/A   Mostly Cloudy
9:54 AM 51.1 °F 35.1 °F 54% 30.12 in 10.0 mi SSW 8.1 mph - N/A   Mostly Cloudy
10:54 AM 54.0 °F 36.0 °F 51% 30.10 in 10.0 mi South 3.5 mph - N/A   Mostly Cloudy
11:54 AM 60.1 °F 33.1 °F 36% 30.05 in 10.0 mi SSW 11.5 mph 16.1 mph N/A   Mostly Cloudy
12:54 PM 62.1 °F 32.0 °F 32% 30.02 in 10.0 mi SSW 8.1 mph 19.6 mph N/A   Overcast
1:54 PM 63.0 °F 30.9 °F 30% 30.00 in 10.0 mi South 10.4 mph - N/A   Overcast
2:54 PM 64.0 °F 30.0 °F 28% 29.99 in 10.0 mi SSW 10.4 mph - N/A   Overcast
3:54 PM 63.0 °F 28.0 °F 27% 29.98 in 10.0 mi SSW 6.9 mph 19.6 mph N/A   Overcast
4:54 PM 62.1 °F 28.0 °F 28% 29.99 in 10.0 mi SSW 8.1 mph - N/A   Mostly Cloudy
5:54 PM 62.1 °F 27.0 °F 26% 29.98 in 10.0 mi SSW 6.9 mph - N/A   Overcast
6:54 PM 62.1 °F 27.0 °F 26% 29.99 in 10.0 mi SSW 12.7 mph 19.6 mph N/A   Mostly Cloudy
7:54 PM 61.0 °F 28.0 °F 29% 30.00 in 10.0 mi SSW 13.8 mph 21.9 mph N/A   Scattered Clouds
8:54 PM 60.1 °F 28.9 °F 31% 29.99 in 10.0 mi SW 12.7 mph 23.0 mph N/A   Partly Cloudy
9:54 PM 59.0 °F 33.1 °F 38% 29.98 in 10.0 mi SW 12.7 mph 21.9 mph N/A   Clear
10:54 PM 59.0 °F 37.0 °F 44% 29.97 in 10.0 mi SW 13.8 mph 26.5 mph N/A   Clear
11:54 PM 57.9 °F 39.9 °F 51% 29.99 in 10.0 mi SW 10.4 mph 19.6 mph N/A   Clear